Weather History for Mekoryuk, AK

Change the Weather History Date:

Tuesday, November 26, 2013

  Actual Average Record
Temperature  
Mean Temperature 27 °F -  
Max Temperature 30 °F 23 °F 39 °F (2014)
Min Temperature 24 °F 16 °F -5 °F (2005)
Degree Days  
Heating Degree Days 38    
Moisture  
Dew Point 23 °F    
Average Humidity 83    
Maximum Humidity 93    
Minimum Humidity 74    
Precipitation  
Precipitation 0.00 in - - ()
Sea Level Pressure  
Sea Level Pressure 30.03 in    
Wind  
Wind Speed 7 mph (NE)    
Max Wind Speed 14 mph    
Max Gust Speed -    
Visibility 8 miles    
Events      
Averages and records for this station are not official NWS values.
T = Trace of Precipitation, MM = Missing Value Source: NWS Daily Summary

Daily Weather History Graph

Daily Weather History Graph

Search for Another Location

Airport:

Trip Planner

Search our weather history database for the weather conditions in past years. The results will help you decide how hot, cold, wet, or windy it might be!

Date:

Astronomy

Nov. 26, 2013 Rise Set
Actual Time 10:33 AM AKST 5:11 PM AKST
Civil Twilight 9:39 AM AKST 6:04 PM AKST
Nautical Twilight 8:44 AM AKST 6:59 PM AKST
Astronomical Twilight 7:54 AM AKST 7:50 PM AKST
Moon 2:06 AM AKST (11/26) 2:58 PM AKST (11/26)
Length of Visible Light 8h 25m
Length of Day
6h 37m
Last Quarter, 40% of the Moon is Illuminated
Nov 26
Last Quarter
Dec 2
New
Dec 9
First Quarter
Dec 17
Full
Dec 25
Last Quarter

Hourly Weather History & Observations

Time (AKST) Temp. Windchill Dew Point Humidity Pressure Visibility Wind Dir Wind Speed Gust Speed Precip Events Conditions
12:16 AM 30.2 °F 22.6 °F 26.6 °F 86% 29.87 in 10.0 mi ESE 8.1 mph - N/A   Overcast
12:36 AM 30.2 °F 21.9 °F 26.6 °F 86% 29.87 in 8.0 mi ESE 9.2 mph - N/A   Overcast
12:56 AM 30.2 °F 21.9 °F 26.6 °F 86% 29.87 in 4.0 mi East 9.2 mph - N/A   Overcast
1:16 AM 30.2 °F 22.6 °F 26.6 °F 86% 29.88 in 6.0 mi East 8.1 mph - N/A   Overcast
1:36 AM 30.2 °F 24.3 °F 26.6 °F 86% 29.88 in 5.0 mi East 5.8 mph - N/A   Overcast
1:56 AM 30.2 °F 26.7 °F 26.6 °F 86% 29.88 in 5.0 mi ESE 3.5 mph - N/A   Overcast
2:16 AM 28.4 °F - 26.6 °F 93% 29.89 in 10.0 mi Calm Calm - N/A   Overcast
2:36 AM 28.4 °F - 26.6 °F 93% 29.89 in 4.0 mi Calm Calm - N/A   Overcast
2:56 AM 28.4 °F - 26.6 °F 93% 29.90 in 1.0 mi Calm Calm - N/A   Overcast
3:16 AM 30.2 °F 26.7 °F 26.6 °F 86% 29.91 in 1.2 mi ESE 3.5 mph - N/A   Overcast
3:36 AM 30.2 °F 24.3 °F 26.6 °F 86% 29.91 in 1.2 mi East 5.8 mph - N/A   Overcast
3:56 AM 28.4 °F 21.2 °F 26.6 °F 93% 29.91 in 3.0 mi East 6.9 mph - N/A   Overcast
4:16 AM 28.4 °F 23.3 °F 26.6 °F 93% 29.92 in 10.0 mi East 4.6 mph - N/A   Overcast
4:36 AM 28.4 °F 22.2 °F 26.6 °F 93% 29.92 in 10.0 mi ENE 5.8 mph - N/A   Overcast
4:56 AM 28.4 °F 20.4 °F 24.8 °F 86% 29.93 in 10.0 mi East 8.1 mph - N/A   Overcast
5:16 AM 28.4 °F 21.2 °F 24.8 °F 86% 29.93 in 5.0 mi East 6.9 mph - N/A   Overcast
5:36 AM 28.4 °F 22.2 °F 24.8 °F 86% 29.93 in 1.5 mi ENE 5.8 mph - N/A   Overcast
5:56 AM 28.4 °F 24.6 °F 26.6 °F 93% 29.94 in 1.8 mi East 3.5 mph - N/A   Overcast
6:16 AM 28.4 °F 22.2 °F 26.6 °F 93% 29.94 in 1.5 mi ENE 5.8 mph - N/A   Overcast
6:36 AM 28.4 °F 23.3 °F 24.8 °F 86% 29.94 in 10.0 mi East 4.6 mph - N/A   Overcast
6:56 AM 26.6 °F 20.0 °F 24.8 °F 93% 29.95 in 10.0 mi ENE 5.8 mph - N/A   Overcast
7:16 AM 26.6 °F 20.0 °F 23.0 °F 86% 29.95 in 10.0 mi ENE 5.8 mph - N/A   Overcast
7:36 AM 26.6 °F 18.2 °F 21.2 °F 80% 29.95 in 10.0 mi ENE 8.1 mph - N/A   Overcast
7:56 AM 26.6 °F 19.1 °F 21.2 °F 80% 29.96 in 10.0 mi ENE 6.9 mph - N/A   Mostly Cloudy
8:16 AM 26.6 °F 20.0 °F 21.2 °F 80% 29.97 in 10.0 mi ENE 5.8 mph - N/A   Mostly Cloudy
8:36 AM 26.6 °F 19.1 °F 21.2 °F 80% 29.98 in 10.0 mi ENE 6.9 mph - N/A   Scattered Clouds
8:56 AM 26.6 °F 18.2 °F 21.2 °F 80% 29.98 in 10.0 mi ENE 8.1 mph - N/A   Scattered Clouds
9:16 AM 26.6 °F 18.2 °F 21.2 °F 80% 29.99 in 10.0 mi ENE 8.1 mph - N/A   Mostly Cloudy
9:36 AM 26.6 °F 20.0 °F 21.2 °F 80% 30.00 in 10.0 mi ENE 5.8 mph - N/A   Mostly Cloudy
9:56 AM 26.6 °F 19.1 °F 21.2 °F 80% 30.00 in 10.0 mi ENE 6.9 mph - N/A   Partly Cloudy
10:16 AM 26.6 °F 22.6 °F 21.2 °F 80% 30.01 in 10.0 mi ENE 3.5 mph - N/A   Scattered Clouds
10:36 AM 26.6 °F 21.2 °F 21.2 °F 80% 30.01 in 10.0 mi ENE 4.6 mph - N/A   Mostly Cloudy
10:56 AM 26.6 °F 21.2 °F 21.2 °F 80% 30.02 in 10.0 mi ENE 4.6 mph - N/A   Overcast
11:16 AM 26.6 °F 20.0 °F 21.2 °F 80% 30.03 in 10.0 mi ENE 5.8 mph - N/A   Overcast
11:36 AM 26.6 °F 20.0 °F 21.2 °F 80% 30.03 in 10.0 mi ENE 5.8 mph - N/A   Overcast
11:56 AM 26.6 °F 21.2 °F 21.2 °F 80% 30.04 in 10.0 mi ENE 4.6 mph - N/A   Overcast
12:16 PM 26.6 °F 20.0 °F 21.2 °F 80% 30.05 in 10.0 mi ENE 5.8 mph - N/A   Overcast
12:36 PM 26.6 °F 20.0 °F 19.4 °F 74% 30.06 in 10.0 mi ENE 5.8 mph - N/A   Overcast
12:56 PM 24.8 °F 16.9 °F 19.4 °F 80% 30.06 in 10.0 mi ENE 6.9 mph - N/A   Overcast
1:16 PM 26.6 °F 20.0 °F 19.4 °F 74% 30.07 in 10.0 mi ENE 5.8 mph - N/A   Overcast
1:36 PM 26.6 °F 20.0 °F 19.4 °F 74% 30.06 in 10.0 mi ENE 5.8 mph - N/A   Overcast
1:56 PM 26.6 °F 19.1 °F 19.4 °F 74% 30.07 in 10.0 mi ENE 6.9 mph - N/A   Overcast
2:16 PM 26.6 °F 17.5 °F 21.2 °F 80% 30.07 in 10.0 mi NNE 9.2 mph - N/A   Mostly Cloudy
2:36 PM 26.6 °F 18.2 °F 19.4 °F 74% 30.08 in 10.0 mi NNE 8.1 mph - N/A   Mostly Cloudy
2:56 PM 26.6 °F 16.8 °F 19.4 °F 74% 30.08 in 10.0 mi NNE 10.4 mph - N/A   Mostly Cloudy
3:16 PM 26.6 °F 17.5 °F 21.2 °F 80% 30.07 in 10.0 mi NE 9.2 mph - N/A   Mostly Cloudy
3:36 PM 24.8 °F 15.3 °F 19.4 °F 80% 30.07 in 10.0 mi NE 9.2 mph - N/A   Partly Cloudy
3:56 PM 24.8 °F 16.1 °F 19.4 °F 80% 30.07 in 10.0 mi NE 8.1 mph - N/A   Mostly Cloudy
4:16 PM 24.8 °F 16.1 °F 19.4 °F 80% 30.08 in 10.0 mi NE 8.1 mph - N/A   Scattered Clouds
4:36 PM 24.8 °F 17.9 °F 19.4 °F 80% 30.08 in 10.0 mi NE 5.8 mph - N/A   Mostly Cloudy
4:56 PM 24.8 °F 16.9 °F 19.4 °F 80% 30.09 in 10.0 mi NE 6.9 mph - N/A   Mostly Cloudy
5:16 PM 24.8 °F 17.9 °F 19.4 °F 80% 30.09 in 10.0 mi NE 5.8 mph - N/A   Overcast
5:36 PM 24.8 °F 19.1 °F 19.4 °F 80% 30.09 in 10.0 mi NE 4.6 mph - N/A   Mostly Cloudy
5:56 PM 24.8 °F 16.9 °F 19.4 °F 80% 30.10 in 10.0 mi NNE 6.9 mph - N/A   Mostly Cloudy
6:16 PM 26.6 °F 18.2 °F 19.4 °F 74% 30.11 in 10.0 mi NNE 8.1 mph - N/A   Mostly Cloudy
6:36 PM 26.6 °F 19.1 °F 19.4 °F 74% 30.11 in 10.0 mi NNE 6.9 mph - N/A   Mostly Cloudy
6:56 PM 26.6 °F 17.5 °F 19.4 °F 74% 30.12 in 10.0 mi North 9.2 mph - N/A   Mostly Cloudy
7:16 PM 26.6 °F 18.2 °F 19.4 °F 74% 30.11 in 10.0 mi NNE 8.1 mph - N/A   Mostly Cloudy
7:36 PM 26.6 °F 18.2 °F 21.2 °F 80% 30.12 in 10.0 mi NNE 8.1 mph - N/A   Overcast
7:56 PM 26.6 °F 17.5 °F 21.2 °F 80% 30.13 in 10.0 mi NNE 9.2 mph - N/A   Overcast
8:16 PM 26.6 °F 16.8 °F 23.0 °F 86% 30.14 in 10.0 mi North 10.4 mph - N/A   Overcast
8:36 PM 28.4 °F 20.4 °F 23.0 °F 80% 30.14 in 3.0 mi North 8.1 mph - N/A   Overcast
8:56 PM 28.4 °F 19.7 °F 23.0 °F 80% 30.14 in 8.0 mi NNE 9.2 mph - N/A   Overcast
9:16 PM 28.4 °F 21.2 °F 23.0 °F 80% 30.14 in 8.0 mi NE 6.9 mph - N/A   Overcast
9:36 PM 28.4 °F 22.2 °F 23.0 °F 80% 30.15 in 5.0 mi NNE 5.8 mph - N/A   Overcast
9:56 PM 28.4 °F 20.4 °F 24.8 °F 86% 30.15 in 5.0 mi NNE 8.1 mph - N/A   Overcast
10:16 PM 28.4 °F 21.2 °F 24.8 °F 86% 30.15 in 10.0 mi NNE 6.9 mph - N/A   Overcast
10:36 PM 28.4 °F 21.2 °F 24.8 °F 86% 30.15 in 6.0 mi NE 6.9 mph - N/A   Overcast
10:56 PM 28.4 °F 19.1 °F 24.8 °F 86% 30.15 in 5.0 mi NNE 10.4 mph - N/A   Overcast
11:16 PM 28.4 °F 21.2 °F 24.8 °F 86% 30.16 in 2.0 mi NE 6.9 mph - N/A   Overcast
11:36 PM 28.4 °F 19.1 °F 26.6 °F 93% 30.16 in 4.0 mi NNE 10.4 mph - N/A   Overcast
11:56 PM 28.4 °F 17.5 °F 26.6 °F 93% 30.17 in 3.0 mi North 13.8 mph - N/A   Overcast